Hill City, KS

10:51 AM CST on December 10, 2016 (GMT -0600)
Hill City Municipal

Weather History for KHLC - June, 2013

Change the Weather History Date:

Tuesday, June 4, 2013

  Actual Average Record
Temperature  
Mean Temperature 71 °F 69 °F  
Max Temperature 81 °F 82 °F 105 °F (1933)
Min Temperature 60 °F 56 °F 37 °F (1951)
Cooling Degree Days 5    
Growing Degree Days 20 (Base 50)    
Moisture  
Dew Point 61 °F    
Average Humidity 77    
Maximum Humidity 97    
Minimum Humidity 52    
Precipitation  
Precipitation 0.50 in 0.10 in 0.50 in (2013)
Month to date precipitation 0.71 0.43  
Year to date precipitation 5.05 8.93  
Sea Level Pressure  
Sea Level Pressure 29.86 in    
Wind  
Wind Speed 8 mph (ENE)    
Max Wind Speed 17 mph    
Max Gust Speed 21 mph    
Visibility 9 miles    
Events Rain , Thunderstorm    
T = Trace of Precipitation, MM = Missing Value Source: NWS Daily Summary

Daily Weather History Graph

Daily Weather History Graph

Search for Another Location

Airport or City:

Trip Planner

Search our weather history database for the weather conditions in past years. The results will help you decide how hot, cold, wet, or windy it might be!

Date:

Astronomy

Jun. 04, 2013 Rise Set
Actual Time 6:13 AM CDT 9:02 PM CDT
Civil Twilight 5:41 AM CDT 9:34 PM CDT
Nautical Twilight 5:01 AM CDT 10:14 PM CDT
Astronomical Twilight 4:15 AM CDT 11:00 PM CDT
Moon 3:43 AM CDT (6/4) 5:34 PM CDT (6/4)
Length of Visible Light 15h 53m
Length of Day
14h 49m
Waning Crescent, 14% of the Moon is Illuminated
Jun 4
Waning Crescent
Jun 8
New
Jun 16
First Quarter
Jun 23
Full
Jun 29
Last Quarter

Hourly Weather History & Observations

Time (CDT) Temp. Dew Point Humidity Pressure Visibility Wind Dir Wind Speed Gust Speed Precip Events Conditions
12:53 AM 66.9 °F 60.1 °F 79% 29.70 in 10.0 mi East 8.1 mph - N/A   Clear
1:53 AM 66.0 °F 59.0 °F 78% 29.69 in 10.0 mi East 10.4 mph - N/A   Clear
2:18 AM 66.2 °F 59.0 °F 78% 29.78 in 10.0 mi ENE 15.0 mph - N/A   Clear
2:53 AM 64.9 °F 59.0 °F 81% 29.74 in 10.0 mi ENE 10.4 mph - N/A   Clear
3:53 AM 64.0 °F 59.0 °F 84% 29.75 in 10.0 mi NE 4.6 mph - N/A   Clear
4:53 AM 63.0 °F 60.1 °F 90% 29.76 in 10.0 mi East 3.5 mph - N/A   Clear
5:53 AM 61.0 °F 59.0 °F 93% 29.77 in 10.0 mi ENE 5.8 mph - N/A   Clear
6:53 AM 61.0 °F 60.1 °F 97% 29.81 in 10.0 mi East 6.9 mph - N/A   Clear
7:00 AM 62.6 °F 60.8 °F 94% 29.87 in 10.0 mi East 6.9 mph - N/A   Scattered Clouds
7:51 AM 64.4 °F 60.8 °F 88% 29.90 in 9.0 mi East 8.1 mph - N/A   Mostly Cloudy
7:53 AM 64.0 °F 61.0 °F 90% 29.83 in 9.0 mi East 6.9 mph - N/A   Mostly Cloudy
8:51 AM 66.2 °F 62.6 °F 88% 29.91 in 10.0 mi SE 4.6 mph - N/A   Scattered Clouds
8:53 AM 66.0 °F 62.1 °F 87% 29.86 in 10.0 mi ESE 4.6 mph - N/A   Scattered Clouds
9:53 AM 70.0 °F 62.1 °F 76% 29.87 in 10.0 mi Calm Calm - N/A   Partly Cloudy
10:53 AM 75.0 °F 60.1 °F 60% 29.86 in 10.0 mi NW 4.6 mph - N/A   Clear
11:53 AM 77.0 °F 60.1 °F 56% 29.88 in 10.0 mi SSW 4.6 mph - N/A   Mostly Cloudy
12:53 PM 72.0 °F 62.1 °F 71% 29.89 in 10.0 mi North 10.4 mph - N/A   Overcast
1:53 PM 73.0 °F 62.1 °F 68% 29.89 in 10.0 mi North 11.5 mph - N/A   Overcast
2:53 PM 75.0 °F 61.0 °F 62% 29.89 in 10.0 mi North 8.1 mph - N/A   Overcast
3:53 PM 78.1 °F 61.0 °F 56% 29.87 in 10.0 mi Variable 5.8 mph - N/A   Scattered Clouds
4:53 PM 79.0 °F 60.1 °F 52% 29.86 in 10.0 mi Calm Calm - N/A   Partly Cloudy
5:53 PM 78.1 °F 61.0 °F 56% 29.86 in 10.0 mi NE 9.2 mph - N/A   Scattered Clouds
6:53 PM 78.1 °F 61.0 °F 56% 29.85 in 10.0 mi ENE 11.5 mph - N/A   Partly Cloudy
7:53 PM 75.0 °F 62.1 °F 64% 29.88 in 10.0 mi NE 9.2 mph - N/A   Overcast
8:53 PM 73.0 °F 62.1 °F 68% 29.91 in 10.0 mi NE 9.2 mph - N/A   Mostly Cloudy
9:53 PM 71.1 °F 63.0 °F 75% 29.93 in 10.0 mi NE 9.2 mph - N/A   Mostly Cloudy
10:53 PM 68.0 °F 63.0 °F 84% 29.96 in 5.0 mi NNE 12.7 mph - 0.07 in Rain , Thunderstorm Heavy Thunderstorms and Rain
11:33 PM 64.4 °F 62.6 °F 94% 30.02 in 1.8 mi NE 17.3 mph 20.7 mph 0.33 in Rain , Thunderstorm Heavy Thunderstorms and Rain
11:46 PM 64.4 °F 62.6 °F 94% 29.98 in 3.0 mi East 16.1 mph - 0.42 in Rain , Thunderstorm Light Thunderstorms and Rain
11:53 PM 64.9 °F 63.0 °F 93% 29.94 in 6.0 mi ENE 13.8 mph - 0.42 in Rain , Thunderstorm Light Thunderstorms and Rain